AirNav   Pilot Hours Calculator
 
 700 users online  

4AZ9 Leroy Airport
Willcox, Arizona, USA

GOING TO WILLCOX?


FAA INFORMATION EFFECTIVE 19 MAY 2022

Location

FAA Identifier: 4AZ9
Lat/Long: 32-06-47.0000N 109-45-42.0000W
32-06.783333N 109-45.700000W
32.1130556,-109.7616667
(estimated)
Elevation: 4197 ft. / 1279 m (estimated)
Variation: 12E (1990)
From city: 10 miles SE of WILLCOX, AZ
Time zone: UTC -7 (year round; does not observe DST)
Zip code: 85606

Airport Operations

Airport use: Private use. Permission required prior to landing
Activation date: 09/1994
Control tower: no
ARTCC: ALBUQUERQUE CENTER
FSS: PRESCOTT FLIGHT SERVICE STATION
Attendance: UNATNDD
Segmented circle: no

Nearby radio navigation aids

VOR radial/distance  VOR name  Freq  Var
SSOr237/27.0SAN SIMON VORTAC115.4013E
DUGr335/39.3DOUGLAS VORTAC108.8013E

Airport Services

Runway Information

Runway 7/25

Dimensions: 2640 x 70 ft. / 805 x 21 m
Surface: turf
RUNWAY 7  RUNWAY 25
Traffic pattern: leftleft

Airport Ownership and Management from official FAA records

Ownership: Privately-owned
Owner: LEROY ENTERPRISES, INC.
6805 S. KS SETTLEMENT ROAD
WILLCOX, AZ 85643
Phone 520-253-0757
Manager: PHIL LEROY
PO BOX 1078
WILLCOX, AZ 85644
Phone 520-253-0757

Airport Operational Statistics

Aircraft based on the field: 13
Single engine airplanes: 3
Ultralights: 10
    

Additional Remarks

FOR CD CTC ALBUQUERQUE ARTCC AT 505-856-4861.

Instrument Procedures

There are no published instrument procedures at 4AZ9.

Some nearby airports with instrument procedures:

P33 - Cochise County Airport (10 nm NW)
KDUG - Bisbee Douglas International Airport (39 nm S)
KFHU - Sierra Vista Municipal Airport-Libby Army Airfield (43 nm SW)
KSAD - Safford Regional Airport (45 nm N)
KDMA - Davis Monthan Air Force Base (57 nm W)
 
Loc | Ops | Rwys | IFR | FBO | Links
Com | Nav | Svcs | Stats | Notes
Area around 4AZ9 (Leroy Airport)
 
Road maps at: MapQuest Bing Google
 
Aerial photo
WARNING: Photo may not be current or correct
Aerial photo of 4AZ9 (Leroy Airport)
Do you have a better or more recent aerial photo of Leroy Airport that you would like to share? If so, please send us your photo.

 
Sectional chart

 
Airport distance calculator
Flying to Leroy Airport? Find the distance to fly.

From to 4AZ9

Sunrise and sunset
Times for 27-May-2022
 Local
(UTC-7)
 Zulu
(UTC)
Morning civil twilight04:4811:48
Sunrise05:1612:16
Sunset19:1602:16
Evening civil twilight19:4402:44

Current date and time
Zulu (UTC)  28-May-2022 04:35:45
Local (UTC-7)  27-May-2022 21:35:45
 
METAR
KFHU 
42nm SW 
280358Z AUTO 24012KT 10SM CLR 26/M15 A3006 RMK AO2 SLP098 T02601148
KSAD 
45nm N 
280351Z AUTO 31010KT 10SM CLR 31/01 A2987 RMK AO2 SLP054 T03060011
KALK 
46nm SW 
280356Z AUTO 22008KT 10SM CLR 25/M13 A3008 RMK AO2 SLP082 T02501128
TAF
KFHU 
42nm SW 
272200Z 2722/2904 24012KT 9999 FEW150 QNH3001INS WND 23009KT AFT 2804 TEMPO 2722/2801 24012G20KT 520007 BECMG 2815/2816 24012G17KT 9999 FEW150 QNH2989INS WND 24012KT AFT 2903 TEMPO 2818/2902 24015G24KT 520005 TX35/2722Z TN18/2813Z LAST NO AMDS AFT 2806 NEXT 3106
NOTAMs
Click for the latest NOTAMs
NOTAMs are issued by the DoD/FAA and will open in a separate window not controlled by AirNav.

 

 
 

Would you like to see your business listed on this page?

 If your business provides an interesting product or service to pilots, flight crews, aircraft, or users of the Leroy Airport, you should consider listing it here.  To start the listing process, click on the button below
 
Add a business
 

Other Pages about Leroy Airport

www.leroyent.com/airport.htm
www.leroyent.com/directions.htm
 
Update a link
 
Copyright © AirNav, LLC. All rights reserved. Privacy Policy  Contact